Retour au catalogue

STARLINK-37778

ActifCommunicationsSSO
NORAD 69352·PAYLOAD·🇺🇸 United States

Lancé Jun 3, 2026 depuis Vandenberg Space Force Base

Loading…

Prochains Passages (prochaines 24 heures)

TLE

FraisSource: CelesTrak SupGP

Époque: Sep 14, 2026, 21:12 UTC

1 69352C 26122Z   26257.88381944  .00009951  00000+0  30895-3 0  2573
2 69352  97.2828 286.6531 0001551  89.1139 253.3931 15.33429566    18

Suivez STARLINK-37778 en temps réel avec AllMySat

Download on the App Store